Regional Weather Roundup
Issued by NWS Upton, NY

Current Version | Previous Version | Graphics & Text | Print | Product List | Glossary Off
Versions: 1 2 3 4 5 6 7 8 9 10 11 12 13 14 15 16 17 18 19 20 21 22 23 24 25 26 27

000
ASUS41 KOKX 291904
RWROKX

REGIONAL WEATHER ROUNDUP
NATIONAL WEATHER SERVICE NEW YORK NY
300 PM EDT SUN MAY 29 2016

NOTE: "FAIR" INDICATES FEW OR NO CLOUDS BELOW 12,000 FEET WITH NO
SIGNIFICANT WEATHER AND/OR OBSTRUCTIONS TO VISIBILITY.

NYZ071-072-176-178-NJZ106-104-292000-
NEW YORK CITY METRO AREA


CITY           SKY/WX    TMP DP  RH WIND       PRES   REMARKS
CENTRAL PARK   SUNNY     82  54  37 VRB7      30.13S
LAGUARDIA APRT PTSUNNY   84  56  38 SE17      30.10F
KENNEDY INTL   PTSUNNY   75  64  68 S17       30.13S
NEWARK/LIBERTY PTSUNNY   85  57  38 SE14      30.08F
BRNX BOT. GARD   N/A     82  57  42 S3        30.12F
TETERBORO      SUNNY     87  59  38 S12       30.07F
$$

NYZ177-179-078>081-292000-
LONG ISLAND NEW YORK

CITY           SKY/WX    TMP DP  RH WIND       PRES   REMARKS
FARMINGDALE    SUNNY     78  62  57 S16       30.13F
ISLIP          PTSUNNY   77  65  66 S13       30.13F
SHIRLEY        MOSUNNY   77  64  64 SW12      30.15F
RIVERHEAD        N/A     82  63  51 SW1       30.12F
WESTHAMPTON    MOSUNNY   75  64  68 S13       30.16F
EAST HAMPTON   FAIR      73  65  75 S12       30.15R
MONTAUK POINT    N/A     70  64  81 S8        30.17R
$$

NYZ052-065-067-292000-
HUDSON VALLEY

CITY           SKY/WX    TMP DP  RH WIND       PRES   REMARKS
WHITE PLAINS   SUNNY     83  61  47 SE10G17   30.10F
NEWBURGH       MOSUNNY   88  70  55 SW12      30.09S HX  92
MONTGOMERY     MOSUNNY   88  68  51 S10       30.05F HX  91
POUGHKEEPSIE   MOSUNNY   91  65  41 S9G16     30.04F HX  93
ALBANY         CLOUDY    86  68  54 S13       30.02F
$$

NJZ001-105-106-008-010-013-015-019>022-104-292000-
NEW JERSEY

CITY           SKY/WX    TMP DP  RH WIND       PRES   REMARKS
NEWARK/LIBERTY PTSUNNY   85  57  38 SE14      30.08F
TETERBORO      SUNNY     87  59  38 S12       30.07F
CALDWELL       CLOUDY    87  62  43 SE14G20   30.07F
MORRISTOWN     PTSUNNY   88  61  40 SW9G15    30.08F
SOMERVILLE     MOSUNNY   87  59  38 VRB7      30.06F
SUSSEX         PTSUNNY   87  64  46 SW9       30.07F
ANDOVER          N/A     85  63  47 VRB7      30.09F
TRENTON        MOSUNNY   87  54  32 SW7       30.08F
MILLVILLE      SUNNY     82  68  62 VRB6      30.11F
ATLANTIC CITY  MOSUNNY   80  69  69 S14       30.13F
WRIGHTSTOWN    NOT AVBL
TOMS RIVER     SUNNY     86  64  48 S14G24    30.11S
BELMAR         SUNNY     80  66  62 SE17      30.11F
$$

PAZ047>061-062-071-292000-
EASTERN PENNSYLVANIA

CITY           SKY/WX    TMP DP  RH WIND       PRES   REMARKS
PHILADELPHIA   PTSUNNY   86  60  41 S13       30.09F
ALLENTOWN      MOSUNNY   89  60  37 S5        30.08F
SCRANTON       PTSUNNY   87  62  43 VRB5      30.07S
$$

CTZ002-004>006-009-010-012-RIZ004-006-007-MAZ004-011-015-292000-
SOUTHERN NEW ENGLAND
 IN CT

CITY           SKY/WX    TMP DP  RH WIND       PRES   REMARKS
BRADLEY INTL   PTSUNNY   90  63  40 S15G22    30.06F HX  91
HARTFORD       MOSUNNY   90  65  43 S14       30.08S HX  92
DANBURY        SUNNY     84  62  47 S13G22    30.11S
WTRBRY/OXFORD  MOSUNNY   82  63  51 S14G20    30.14F
BRIDGEPORT     SUNNY     78  63  59 SE7       30.11F
MERIDEN        SUNNY     87  63  44 S13G20    30.09F
NEW HAVEN      CLOUDY    79  61  53 SE9       30.12S
CHESTER        FAIR      82  61  47 S13       30.14S
GROTON         CLOUDY    74  65  73 SE9       30.13F
WILLIMANTIC    PTSUNNY   88  63  43 S12       30.11S

 IN RI

CITY           SKY/WX    TMP DP  RH WIND       PRES   REMARKS
PROVIDENCE     CLOUDY    79  63  57 SE9       30.15F
BLOCK ISLAND   CLOUDY    70  63  78 SW12      30.17S
WESTERLY       CLOUDY    71  59  65 SE8       30.16S

 IN MA

CITY           SKY/WX    TMP DP  RH WIND       PRES   REMARKS
BOSTON         CLOUDY    59  54  83 NE9       30.20F
WORCESTER      CLOUDY    66  58  75 NE9       30.18F
WESTFIELD      MOSUNNY   85  67  54 N12       30.08F
PROVINCETOWN   CLOUDY    59  54  83 NE9       30.18F
NANTUCKET      SUNNY     69  60  73 SW12      30.17S
$$

ANZ330-335-338-340-345-350-353-355-292000-
COASTAL MARINE OBSERVATIONS


STATION/POSITION TIME  SKY/WX   TEMP    WIND        PRES    VSBY  WAVE
                                AIR SEA DIR/SP/G                  HT/PER
                 (UTC)          (F)     (DEG/KT/KT) (MB)    (MI)  (FT/S)
NY HARB ENTRANCE 1750            60 59  170/ 10/ 12 1019.9          2/ 8
20S FIRE ISLAND  1750            61 62  180/ 10/ 12 1020.5          2/ 8
GREAT SOUTH BAY  1800            67 71  200/  8/ 10   N/A
23 SSW MONTAUK P 1850            60 59  200/  8/ 10 1020.8          2/ 8
15 E BARNEGAT LI 1822               62                N/A           2/ 8
HUDSON CANYON    1750            66 62              1021.3          3/ 8
KINGS POINT      1800            76 61              1019.5
EXECUTION ROCKS  NOT AVBL
CENTRAL LI SOUND NOT AVBL
EASTERN LI SOUND 1800            67 57  120/  6/  8   N/A
ROBBINS REEF     1800            71     170/ 16/ 18 1019.1
$$


>>>>>>>>>>>>>>>>>>>>>>>>>>>> KEY <<<<<<<<<<<<<<<<<<<<<<<<<<<
>                                                          <
>     SKY/WX - SKY CONDITION/PRESENT WEATHER               <
>     TMP    - TEMPERATURE IN FAHRENHEIT                   <
>     DP     - DEWPOINT IN FAHRENHEIT                      <
>     RH     - RELATIVE HUMIDITY IN PERCENT                <
>     WIND   - DIRECTION AND SPEED IN MPH                  <
>     PRES   - MEAN SEA LEVEL PRESSURE IN INCHES OF HG     <
>     WCI    - WIND CHILL INDEX                            <
>     VSB    - VISIBILITY IN MILES                         <
>     HX     - HEAT INDEX                                  <
>     TC     - TEMPERATURE IN CELSIUS                      <
>     VRB    - VARIABLE WIND DIRECTION                     <
>                                                          <
>>>>>>>>>>>>>>>>>>>>>>>>>>>> KEY <<<<<<<<<<<<<<<<<<<<<<<<<<<






USA.gov is the U.S. government's official web portal to all federal, state and local government web resources and services.